STARLINK-34700

Last updated on Tue Aug 26 2025 00:02:05 GMT+0000 (Coordinated Universal Time)

1 64922U 25157U 25237.58336806 .00001142 00000+0 38544-4 0 9996 2 64922 53.1613 187.6976 0001336 88.9910 218.4377 15.39608552 5984
UTC large
Height (km)
Speed (km/s)
/
Latitude / Longitude
Inclination (degrees)
Orbital Period (minutes)
Azimuth
Elevation
Range (km)
Doppler Factor

Next 0 passes for location: London (51.5072 / 0.1276)

Sorry there are no passes over London.